Regional Weather Roundup
Issued by NWS Little Rock, AR

Home | Current Version | Previous Version | Text Only | Print | Product List | Glossary On
Versions: 1 2 3 4 5 6 7 8 9 10 11 12 13 14 15 16 17 18 19 20 21 22 23 24 25 26 27 28 29 30 31 32 33 34 35 36 37 38 39 40 41 42 43 44 45 46 47 48 49 50
000
ASUS44 KLZK 190905
RWRLZK

WEATHER ROUNDUP FOR ARKANSAS
NATIONAL WEATHER SERVICE LITTLE ROCK AR
300 AM CST FRI DEC 19 2014

NOTE: "FAIR" INDICATES FEW OR NO CLOUDS BELOW 12,000 FEET WITH NO
SIGNIFICANT WEATHER AND/OR OBSTRUCTIONS TO VISIBILITY.

ARZ001-003-010-029-191000-
NORTHWEST ARKANSAS

CITY           SKY/WX    TMP DP  RH WIND       PRES   REMARKS
FAYETTEVILLE   CLOUDY    40  39  97 VRB3      30.17F FOG
FORT SMITH     CLOUDY    40  38  93 E3        30.20F FOG
HARRISON       CLOUDY    37  36  96 CALM      30.18F
BENTONVILLE    CLOUDY    39  37  93 N7        30.18F VSB 3/4
ROGERS         FOG       39  39 100 NE8       30.18F VSB 3/4
SILOAM SPGS    CLOUDY    39  34  81 N6        30.19F VSB 3/4
HIGHFILL       FOG       40  39  97 N7        30.17F VSB 1/4
$$

ARZ004-005-016-191000-
NORTH CENTRAL ARKANSAS

CITY           SKY/WX    TMP DP  RH WIND       PRES   REMARKS
BATESVILLE     CLOUDY    39  36  87 N6        30.21F
FLIPPIN        CLOUDY    37  34  87 NE3       30.20F
MTN HOME       CLOUDY    37  36  96 NE5       30.19F FOG
$$

ARZ040-041-191000-
WEST CENTRAL ARKANSAS

CITY           SKY/WX    TMP DP  RH WIND       PRES   REMARKS
MENA           CLOUDY    43  41  93 E6        30.18R
MOUNT IDA      CLOUDY    40  39  97 CALM      30.16R FOG
$$

ARZ009-017-025-026-028-191000-
NORTHEAST ARKANSAS

CITY           SKY/WX    TMP DP  RH WIND       PRES   REMARKS
CORNING        CLOUDY    36  34  93 NE9       30.26S
JONESBORO      CLOUDY    38  36  92 NE8       30.23F
NEWPORT        CLOUDY    39  37  92 NE13      30.23F
WALNUT RIDGE   CLOUDY    37  34  87 N8        30.23F
BLYTHEVILLE    CLOUDY    39  36  89 NE12      30.25S
$$

ARZ022-023-033-042-044-191000-
CENTRAL ARKANSAS

CITY           SKY/WX    TMP DP  RH WIND       PRES   REMARKS
LITTLE ROCK    CLOUDY    42  38  85 NE5       30.24R
N LITTLE ROCK    N/A     40  40 100 E6        30.24R
JACKSONVILLE   CLOUDY    41  38  91 VRB2      30.23R
SEARCY         CLOUDY    39  37  92 NE5       30.23S
HOT SPRINGS    CLOUDY    40  38  93 E7        30.20R
RUSSELLVILLE   CLOUDY    41  38  89 CALM      30.20R
CLINTON        CLOUDY    39  39 100 CALM      30.21F FOG
$$

ARZ036-191000-
EAST ARKANSAS

CITY           SKY/WX    TMP DP  RH WIND       PRES   REMARKS
WEST MEMPHIS   CLOUDY    41  39  93 N8        30.19F
$$

ARZ050-053-066-070-073-191000-
SOUTHWEST ARKANSAS

CITY           SKY/WX    TMP DP  RH WIND       PRES   REMARKS
ARKADELPHIA    CLOUDY    42  42 100 NE7       30.22R FOG
CAMDEN         CLOUDY    45  41  87 MISG      30.18F FOG
TEXARKANA      CLOUDY    43  43 100 NE7       30.16F FOG
EL DORADO      CLOUDY    45  43  93 N6        30.16S
DE QUEEN       CLOUDY    44  42  93 E8        30.17S
$$

ARZ056-057-069-191000-
SOUTHEAST ARKANSAS

CITY           SKY/WX    TMP DP  RH WIND       PRES   REMARKS
PINE BLUFF     CLOUDY    42  39  89 NE8       30.20S
STUTTGART      CLOUDY    43  37  81 N6        30.23R
MONTICELLO     CLOUDY    45  41  86 NE5       30.17F

$$





USA.gov is the U.S. government's official web portal to all federal, state and local government web resources and services.